Simultaneous Nadir Overpasses (SNOs) Predictions

Prediction of SNOs between AQUA and METOP-C Satellite Orbit:

Table of predicted SNOs for the next 14.0 days since TLE Epoch: 5/10/2019
Index Date (AQUA) Time (AQUA) Lat,Lon (AQUA) SZA (AQUA ) Date (METOP-C) Time (METOP-C) Lat,Lon (METOP-C) SZA (METOP-C ) Distance(km) Time Diff (sec)
1 05/12/2019 14:10:41 -73.78, 141.74 124.41 05/12/2019 14:10:12 -73.81, 141.75 124.38 2.77 29
2 05/12/2019 15:00:11 73.88, -50.84 55.69 05/12/2019 15:00:50 73.87, -50.75 55.68 2.80 39
3 05/15/2019 09:44:55 -73.78,-151.82 125.09 05/15/2019 09:44:36 -73.79,-151.87 125.08 2.07 19
4 05/15/2019 10:34:25 73.88, 15.59 55.01 05/15/2019 10:35:14 73.85, 15.60 54.97 3.62 49
5 05/18/2019 04:29:35 73.37, 107.85 53.84 05/18/2019 04:28:26 73.30, 106.07 53.83 57.19 69
6 05/18/2019 05:19:08 -73.79, -85.39 125.73 05/18/2019 05:18:59 -73.78, -85.50 125.73 3.58 9
7 05/18/2019 06:08:38 73.89, 82.01 54.38 05/18/2019 06:09:36 73.88, 82.07 54.36 2.60 58
8 05/21/2019 00:03:55 73.70, 173.58 53.59 05/21/2019 00:02:42 73.68, 173.34 53.58 8.05 73
9 05/21/2019 00:53:22 -73.80, -18.97 126.32 05/21/2019 00:53:22 -73.81, -19.02 126.30 2.27 0
10 05/21/2019 01:42:51 73.86, 148.53 53.74 05/21/2019 01:44:00 73.86, 148.43 53.74 3.00 69
11 05/23/2019 19:38:10 73.78,-120.14 53.12 05/23/2019 19:37:04 73.76,-120.07 53.10 3.11 66
12 05/23/2019 20:27:36 -73.81, 47.43 126.86 05/23/2019 20:27:46 -73.80, 47.35 126.87 2.94 10




NCC Satellite Simultaneous Nadir Overpasses (SNOs) Prediction Service
